Location: Roland
(31.1349°N, 85.4372°W)
Time: 13:24:00
(UTC+00:00)

Courier 1B Rocket - All Passes

Search period start: 23 April 2021 00:00
Search period end: 03 May 2021 00:00
Orbit: 920 x 1202 km, 28.2° (Epoch: 22 April)

Date Brightness Start Highest point End Pass type
(mag) Time Alt. Az. Time Alt. Az. Time Alt. Az.
23 Apr - 00:01:35 10° WSW 00:07:46 51° SSE 00:14:22 10° E daylight
23 Apr - 01:54:27 10° W 02:01:07 71° S 02:08:18 10° E visible
23 Apr - 03:47:48 10° W 03:54:37 57° SSW 04:01:57 10° ESE visible
23 Apr - 05:41:48 10° W 05:47:56 29° SSW 05:54:20 10° SSE night (unlit)
23 Apr - 21:10:48 10° S 21:14:06 15° SSE 21:17:27 10° ESE daylight
23 Apr - 23:01:00 10° SW 23:06:50 40° SSE 23:12:59 10° E daylight
24 Apr - 00:53:34 10° WSW 01:00:01 68° S 01:06:57 10° E visible
24 Apr - 02:46:47 10° W 02:53:29 64° S 03:00:43 10° ESE visible
24 Apr - 04:40:25 10° W 04:46:51 37° SSW 04:53:40 10° SE visible
24 Apr - 06:36:17 10° WSW 06:39:59 14° SSW 06:43:46 10° S night (unlit)
24 Apr - 22:00:37 10° SW 22:05:59 30° SSE 22:11:31 10° E daylight
24 Apr - 23:52:44 10° WSW 23:58:59 61° S 00:05:38 10° E daylight
25 Apr - 01:45:50 10° W 01:52:22 69° S 01:59:25 10° ESE visible
25 Apr - 03:39:13 10° W 03:45:46 46° SSW 03:52:45 10° SE visible
25 Apr - 05:33:51 10° WSW 05:38:56 20° SSW 05:44:13 10° SSE night (unlit)
25 Apr - 21:00:32 10° SSW 21:05:11 22° SSE 21:09:52 10° ESE daylight
25 Apr - 22:52:00 10° WSW 22:58:02 51° SSE 23:04:21 10° E daylight
26 Apr - 00:44:54 10° W 00:51:17 70° S 00:58:07 10° E visible
26 Apr - 02:38:11 10° W 02:44:41 55° SSW 02:51:40 10° ESE visible
26 Apr - 04:32:09 10° W 04:37:54 27° SSW 04:43:59 10° SSE visible
26 Apr - 20:01:02 10° S 20:04:23 15° SSE 20:07:44 10° ESE daylight
26 Apr - 21:51:22 10° SW 21:57:08 40° SSE 22:03:04 10° E daylight
26 Apr - 23:44:01 10° WSW 23:50:16 67° S 23:56:52 10° E daylight
27 Apr - 01:37:12 10° W 01:43:37 63° S 01:50:30 10° ESE visible
27 Apr - 03:30:48 10° W 03:36:52 35° SSW 03:43:21 10° SE visible
27 Apr - 05:26:50 10° SW 05:29:57 13° SSW 05:33:07 10° S night (unlit)
27 Apr - 20:50:55 10° SW 20:56:18 31° SSE 21:01:42 10° E daylight
27 Apr - 22:43:09 10° WSW 22:49:17 60° S 22:55:38 10° E daylight
28 Apr - 00:36:16 10° W 00:42:34 68° S 00:49:16 10° ESE visible
28 Apr - 02:29:39 10° W 02:35:51 44° SSW 02:42:29 10° SE visible
28 Apr - 04:24:20 10° WSW 04:28:56 19° SSW 04:33:46 10° SSE visible
28 Apr - 19:50:44 10° SSW 19:55:29 22° SSE 20:00:10 10° ESE daylight
28 Apr - 21:42:21 10° WSW 21:48:21 51° SSE 21:54:27 10° E daylight
28 Apr - 23:35:20 10° W 23:41:34 69° S 23:48:05 10° E daylight
29 Apr - 01:28:38 10° W 01:34:51 53° SSW 01:41:29 10° ESE visible
29 Apr - 03:22:37 10° WSW 03:27:58 26° SSW 03:33:37 10° SSE visible
29 Apr - 18:51:01 10° S 18:54:40 16° SSE 18:58:13 10° ESE daylight
29 Apr - 20:41:39 10° SW 20:47:28 41° SSE 20:53:17 10° E daylight
29 Apr - 22:34:24 10° WSW 22:40:35 67° S 22:46:55 10° E daylight
30 Apr - 00:27:39 10° W 00:33:52 61° S 00:40:24 10° ESE daylight
30 Apr - 02:21:16 10° W 02:27:00 33° SSW 02:33:05 10° SE visible
30 Apr - 04:17:43 10° SW 04:19:59 12° SSW 04:22:18 10° S visible
30 Apr - 17:53:28 10° SSE 17:53:49 10° SSE 17:54:09 10° SSE daylight
30 Apr - 19:41:05 10° SW 19:46:37 31° SSE 19:52:02 10° E daylight
30 Apr - 21:33:29 10° WSW 21:39:38 60° S 21:45:49 10° E daylight
30 Apr - 23:26:42 10° W 23:32:53 67° S 23:39:17 10° ESE daylight
01 May - 01:20:07 10° W 01:26:04 42° SSW 01:32:19 10° SE visible
01 May - 03:14:55 10° WSW 03:19:02 17° SSW 03:23:20 10° S visible
01 May - 18:40:45 10° SSW 18:45:46 23° SSE 18:50:36 10° ESE daylight
01 May - 20:32:35 10° WSW 20:38:42 52° SSE 20:44:44 10° E daylight
01 May - 22:25:43 10° W 22:31:54 69° S 22:38:12 10° E daylight
02 May - 00:19:05 10° W 00:25:07 51° SSW 00:31:25 10° ESE daylight
02 May - 02:13:08 10° WSW 02:18:08 24° SSW 02:23:21 10° SSE visible
02 May - 17:40:51 10° S 17:44:54 17° SSE 17:48:49 10° ESE daylight
02 May - 19:31:47 10° SW 19:37:48 42° SSE 19:43:38 10° E daylight
02 May - 21:24:42 10° WSW 21:30:57 67° S 21:37:08 10° E daylight
02 May - 23:18:04 10° W 23:24:10 60° S 23:30:27 10° ESE daylight
